| time (UTC) | temp F | wind direction | speed MPH | gust MPH | rain 1hr in | rain 24hr in | rain mn in | humidity % | barometer mb |
| 20260509150053 | 63 | 225 | 4.0 | 15.0 | 0.00 | 0.00 | 0.00 | 65 | 1004.7 |
| 20260509144609 | 62 | 240 | 10.0 | 16.0 | 0.00 | 0.00 | 0.00 | 65 | 1004.7 |
| 20260509143056 | 61 | 242 | 8.0 | 16.0 | 0.00 | 0.00 | 0.00 | 70 | 1004.6 |
| 20260509141558 | 60 | 242 | 11.0 | 17.0 | 0.00 | 0.00 | 0.00 | 70 | 1004.6 |
| 20260509140112 | 59 | 238 | 8.0 | 17.0 | 0.00 | 0.00 | 0.00 | 72 | 1004.5 |
| 20260509134555 | 58 | 233 | 9.0 | 16.0 | 0.00 | 0.00 | 0.00 | 74 | 1004.2 |
| 20260509133058 | 58 | 234 | 8.0 | 19.0 | 0.00 | 0.00 | 0.00 | 76 | 1004.2 |
| 20260509131558 | 57 | 260 | 10.0 | 15.0 | 0.00 | 0.00 | 0.00 | 78 | 1004.7 |
| 20260509130108 | 56 | 258 | 12.0 | 18.0 | 0.00 | 0.00 | 0.00 | 79 | 1004.9 |
| 20260509124606 | 56 | 244 | 10.0 | 19.0 | 0.00 | 0.00 | 0.00 | 80 | 1004.5 |
| 20260509123100 | 55 | 225 | 10.0 | 18.0 | 0.00 | 0.00 | 0.00 | 80 | 1004.6 |
| 20260509121604 | 55 | 202 | 11.0 | 16.0 | 0.00 | 0.00 | 0.00 | 82 | 1004.6 |
| 20260509120056 | 54 | 219 | 6.0 | 16.0 | 0.00 | 0.00 | 0.00 | 84 | 1004.5 |
| 20260509114553 | 54 | 276 | 5.0 | 13.0 | 0.00 | 0.00 | 0.00 | 84 | 1004.3 |
| 20260509113057 | 54 | 222 | 6.0 | 13.0 | 0.00 | 0.00 | 0.00 | 83 | 1004.0 |
| 20260509111608 | 54 | 260 | 7.0 | 15.0 | 0.00 | 0.00 | 0.00 | 82 | 1003.8 |
| 20260509110056 | 54 | 244 | 5.0 | 14.0 | 0.00 | 0.00 | 0.00 | 82 | 1003.9 |
| 20260509104557 | 54 | 352 | 5.0 | 10.0 | 0.00 | 0.00 | 0.00 | 82 | 1003.6 |
| 20260509103051 | 54 | 206 | 8.0 | 15.0 | 0.00 | 0.00 | 0.00 | 83 | 1003.5 |
| 20260509101553 | 54 | 185 | 5.0 | 13.0 | 0.00 | 0.00 | 0.00 | 84 | 1003.5 |
| 20260509100054 | 53 | 267 | 5.0 | 13.0 | 0.00 | 0.00 | 0.00 | 85 | 1003.6 |
| 20260509094555 | 54 | 196 | 5.0 | 12.0 | 0.00 | 0.00 | 0.00 | 85 | 1004.0 |
| 20260509093052 | 54 | 230 | 5.0 | 10.0 | 0.00 | 0.00 | 0.00 | 85 | 1004.3 |
| 20260509091553 | 54 | 219 | 5.0 | 13.0 | 0.00 | 0.00 | 0.00 | 85 | 1004.3 |
| 20260509090104 | 53 | 202 | 5.0 | 12.0 | 0.00 | 0.00 | 0.00 | 85 | 1004.3 |
| 20260509084556 | 53 | 236 | 6.0 | 12.0 | 0.00 | 0.00 | 0.00 | 84 | 1004.5 |
| 20260509083059 | 54 | 194 | 5.0 | 12.0 | 0.00 | 0.00 | 0.00 | 83 | 1004.4 |
| 20260509081556 | 54 | 229 | 4.0 | 11.0 | 0.00 | 0.00 | 0.00 | 83 | 1004.4 |
| 20260509080100 | 54 | 250 | 5.0 | 12.0 | 0.00 | 0.00 | 0.00 | 82 | 1004.4 |
| 20260509074553 | 54 | 200 | 5.0 | 11.0 | 0.00 | 0.00 | 0.00 | 81 | 1004.5 |
| 20260509073052 | 55 | 211 | 5.0 | 11.0 | 0.00 | 0.00 | 0.00 | 80 | 1004.7 |
| 20260509071555 | 55 | 225 | 5.0 | 12.0 | 0.00 | 0.00 | 0.00 | 80 | 1005.0 |
| 20260509070051 | 55 | 211 | 5.0 | 12.0 | 0.00 | 0.00 | 0.00 | 79 | 1005.3 |
| 20260509064555 | 55 | 223 | 5.0 | 12.0 | 0.00 | 0.00 | 0.00 | 79 | 1005.4 |
| 20260509063102 | 56 | 240 | 5.0 | 11.0 | 0.00 | 0.00 | 0.00 | 78 | 1005.5 |
| 20260509061551 | 56 | 181 | 7.0 | 11.0 | 0.00 | 0.00 | 0.00 | 78 | 1005.6 |
| 20260509060100 | 56 | 225 | 8.0 | 15.0 | 0.00 | 0.00 | 0.00 | 78 | 1005.8 |
| 20260509054554 | 57 | 234 | 9.0 | 17.0 | 0.00 | 0.00 | 0.00 | 77 | 1006.0 |
| 20260509053132 | 57 | 153 | 6.0 | 16.0 | 0.00 | 0.00 | 0.00 | 76 | 1005.9 |
| 20260509051551 | 57 | 211 | 7.0 | 17.0 | 0.00 | 0.00 | 0.00 | 75 | 1005.9 |
| 20260509050052 | 58 | 186 | 5.0 | 16.0 | 0.00 | 0.00 | 0.00 | 74 | 1005.9 |
| 20260509044551 | 58 | 123 | 7.0 | 16.0 | 0.00 | 0.00 | 0.00 | 72 | 1005.9 |
| 20260509043106 | 58 | 28 | 6.0 | 15.0 | 0.00 | 0.00 | 0.00 | 70 | 1006.0 |
| 20260509041601 | 59 | 265 | 6.0 | 15.0 | 0.00 | 0.00 | 0.00 | 68 | 1005.8 |
| 20260509040105 | 59 | 288 | 6.0 | 16.0 | 0.00 | 0.00 | 0.00 | 67 | 1005.9 |
| 20260509034604 | 58 | 61 | 5.0 | 11.0 | 0.00 | 0.00 | 0.00 | 67 | 1006.1 |
| 20260509033054 | 57 | 298 | 4.0 | 9.0 | 0.00 | 0.00 | 0.00 | 66 | 1006.1 |
| 20260509031605 | 56 | 109 | 5.0 | 14.0 | 0.00 | 0.00 | 0.00 | 65 | 1006.2 |
| 20260509030056 | 56 | 154 | 6.0 | 13.0 | 0.00 | 0.00 | 0.00 | 64 | 1006.2 |
| 20260509024553 | 57 | 144 | 8.0 | 14.0 | 0.00 | 0.00 | 0.00 | 62 | 1006.1 |
| 20260509023053 | 57 | 138 | 8.0 | 14.0 | 0.00 | 0.00 | 0.00 | 61 | 1006.3 |
| 20260509021552 | 57 | 137 | 8.0 | 11.0 | 0.00 | 0.00 | 0.00 | 61 | 1006.3 |
| 20260509020054 | 57 | 165 | 6.0 | 11.0 | 0.00 | 0.00 | 0.00 | 61 | 1006.4 |
| 20260509014600 | 58 | 167 | 5.0 | 10.0 | 0.00 | 0.00 | 0.00 | 61 | 1006.3 |
| 20260509013055 | 58 | 141 | 8.0 | 13.0 | 0.00 | 0.00 | 0.00 | 61 | 1006.2 |
| 20260509011552 | 59 | 210 | 10.0 | 15.0 | 0.00 | 0.00 | 0.00 | 60 | 1006.2 |
| 20260509010057 | 59 | 135 | 9.0 | 13.0 | 0.00 | 0.00 | 0.00 | 59 | 1006.1 |
| 20260509004550 | 60 | 141 | 8.0 | 13.0 | 0.00 | 0.00 | 0.00 | 58 | 1006.2 |
| 20260509003051 | 61 | 188 | 3.0 | 12.0 | 0.00 | 0.00 | 0.00 | 57 | 1006.1 |
| 20260509001555 | 61 | 176 | 4.0 | 10.0 | 0.00 | 0.00 | 0.00 | 56 | 1006.3 |
| 20260509000056 | 61 | 259 | 3.0 | 7.0 | 0.00 | 0.00 | 0.00 | 55 | 1006.4 |
| 20260508234555 | 62 | 136 | 4.0 | 10.0 | 0.00 | 0.00 | 0.00 | 56 | 1006.4 |
| 20260508233104 | 62 | 323 | 6.0 | 14.0 | 0.00 | 0.00 | 0.00 | 56 | 1006.5 |
| 20260508231554 | 62 | 269 | 9.0 | 15.0 | 0.00 | 0.00 | 0.00 | 56 | 1006.5 |
| 20260508224554 | 62 | 208 | 3.0 | 14.0 | 0.00 | 0.00 | 0.00 | 57 | 1006.8 |
| 20260508223056 | 62 | 76 | 4.0 | 10.0 | 0.00 | 0.00 | 0.00 | 56 | 1006.8 |
| 20260508221554 | 63 | 148 | 5.0 | 10.0 | 0.00 | 0.00 | 0.00 | 56 | 1006.9 |
| 20260508220058 | 62 | 342 | 5.0 | 11.0 | 0.00 | 0.00 | 0.00 | 58 | 1007.0 |
| 20260508214552 | 62 | 221 | 4.0 | 14.0 | 0.00 | 0.10 | 0.00 | 59 | 1007.1 |
| 20260508213051 | 62 | 159 | 4.0 | 12.0 | 0.00 | 0.10 | 0.00 | 57 | 1007.1 |
| 20260508211553 | 64 | 9 | 5.0 | 15.0 | 0.00 | 0.10 | 0.00 | 54 | 1007.1 |
| 20260508210104 | 64 | 80 | 4.0 | 18.0 | 0.00 | 0.10 | 0.00 | 52 | 1007.1 |
| 20260508204554 | 63 | 135 | 8.0 | 16.0 | 0.00 | 0.10 | 0.00 | 52 | 1007.2 |
| 20260508203059 | 63 | 170 | 5.0 | 17.0 | 0.00 | 0.10 | 0.00 | 46 | 1007.3 |
| 20260508201555 | 64 | 80 | 7.0 | 15.0 | 0.00 | 0.10 | 0.00 | 46 | 1007.4 |
| 20260508200057 | 65 | 72 | 5.0 | 13.0 | 0.00 | 0.10 | 0.00 | 47 | 1007.8 |
| 20260508194552 | 63 | 103 | 4.0 | 13.0 | 0.00 | 0.10 | 0.00 | 49 | 1008.0 |
| 20260508193109 | 64 | 82 | 7.0 | 14.0 | 0.00 | 0.10 | 0.00 | 45 | 1008.2 |
| 20260508191559 | 64 | 227 | 4.0 | 13.0 | 0.00 | 0.10 | 0.00 | 43 | 1008.3 |
| 20260508190052 | 64 | 214 | 5.0 | 16.0 | 0.00 | 0.10 | 0.00 | 40 | 1008.7 |
| 20260508184551 | 67 | 102 | 2.0 | 6.0 | 0.00 | 0.10 | 0.00 | 37 | 1008.9 |
| 20260508183050 | 66 | 154 | 1.0 | 10.0 | 0.00 | 0.10 | 0.00 | 39 | 1008.9 |
| 20260508181552 | 65 | 260 | 4.0 | 11.0 | 0.00 | 0.10 | 0.00 | 39 | 1009.0 |
| 20260508180052 | 65 | 224 | 3.0 | 10.0 | 0.00 | 0.10 | 0.00 | 37 | 1009.2 |
| 20260508174550 | 65 | 288 | 5.0 | 10.0 | 0.00 | 0.10 | 0.00 | 35 | 1009.5 |
| 20260508173051 | 64 | 86 | 5.0 | 15.0 | 0.00 | 0.10 | 0.00 | 36 | 1009.8 |
| 20260508171555 | 65 | 253 | 2.0 | 7.0 | 0.00 | 0.10 | 0.00 | 37 | 1010.0 |
| 20260508170057 | 64 | 299 | 2.0 | 12.0 | 0.00 | 0.10 | 0.00 | 39 | 1010.3 |
| 20260508164552 | 64 | 188 | 3.0 | 11.0 | 0.00 | 0.10 | 0.00 | 39 | 1010.4 |
| 20260508163054 | 63 | 318 | 2.0 | 10.0 | 0.00 | 0.10 | 0.00 | 40 | 1010.8 |
| 20260508161554 | 61 | 275 | 7.0 | 12.0 | 0.00 | 0.10 | 0.00 | 44 | 1010.9 |
| 20260508160055 | 61 | 227 | 2.0 | 9.0 | 0.00 | 0.10 | 0.00 | 45 | 1010.9 |
| 20260508154554 | 61 | 144 | 3.0 | 8.0 | 0.00 | 0.10 | 0.00 | 43 | 1011.0 |
| 20260508153055 | 60 | 118 | 2.0 | 7.0 | 0.00 | 0.10 | 0.00 | 47 | 1011.2 |
| 20260508151556 | 59 | 103 | 2.0 | 6.0 | 0.00 | 0.10 | 0.00 | 50 | 1011.2 |